SCP
0 0 0 0 0 0 0 0 0 0 0 0 0 0 0 0 0 0 0 0 0 0 0 0 0 0 0 0 0 0 0 0 0 0 0 0 0 0 0 0 0 0 0
0 0 0 -0 0 0 0 0 0 0 0 0 0 0 0 0 0 0 0 0 0 0 0 0 0 0 0 0 0 0 0 0 0 0 0 0 0 0 0 0 0 0 0
0 0 -0 -0 0 0 0 0 0 0 0 0 0 0 0 0 0 0 0 0 0 0 0 0 0 0 0 0 0 0 0 0 0 0 0 0 0 0 0 0 0 0 0
-0 -0 0 0 0 0 0 0 0 0 0 0 0 0 0 0 0 0 0 0 0 0 0 0 0 0 0 0 0 0 0 0 0 0 0 0 0 0 0 0 0 0 0
-0 -0 0 0 0 0 0 0 0 0 -0 -0 -0 0 0 0 0 0 0 0 0 0 0 0 0 0 0 0 0 0 0 0 0 0 0 0 0 0 0 0 0 0 0
0 0 0 0 0 0 0 0 0 0 -0 -0 -0 -0 -0 0 0 0 0 0 0 0 0 0 0 0 0 0 0 0 0 0 0 0 0 0 0 0 0 0 0 0 0
0 0 0 0 0 0 0 0 0 0 -0 -0 -0 -0 -0 -0 -0 0 0 0 0 0 0 0 0 0 0 0 0 0 0 0 0 0 0 0 0 0 0 0 0 0 0
0 0 0 0 -0 -0 -0 -0 -0 -0 -0 0 -0 -0 -0 -0 -0 -0 0 0 0 0 0 0 0 0 0 0 0 0 0 0 0 0 0 0 0 0 0 0 0 0 0
0 0 0 0 0 -0 -0 -0 -0 0 0 0 0 0 0 -0 -0 -0 0 0 0 0 0 0 0 0 0 0 0 0 0 0 0 0 0 0 0 0 0 0 0 0 0
0 0 0 0 0 0 0 0 0 0 0 0 0 0 0 -0 -0 -0 0 0 0 0 0 0 0 0 0 0 0 0 0 0 0 0 0 0 0 0 0 0 0 0 0
0 0 0 0 0 0 0 0 0 0 0 0 0 0 0 -0 -0 -0 0 0 0 0 0 0 0 0 0 0 0 0 0 0 0 0 0 0 0 0 0 0 0 0 0
0 0 0 0 0 0 0 0 0 0 0 0 -0 -0 0 -0 0 -0 0 0 0 0 0 0 0 0 0 0 0 0 0 0 0 0 0 0 0 0 0 0 0 0 0
0 0 0 0 0 0 0 0 0 0 0 0 0 -0 -0 -0 0 0 0 0 0 0 0 0 0 0 0 0 0 0 0 0 0 0 0 0 0 0 0 0 0 0 0
0 0 0 0 0 0 0 0 0 0 0 0 0 0 -0 -0 -0 0 -0 0 0 0 0 0 0 0 0 0 0 0 0 0 0 0 0 0 0 0 0 0 0 0 0
0 0 0 0 0 0 -0 0 0 0 0 0 0 0 0 -0 -0 -0 -0 0 0 0 0 0 0 0 0 0 0 0 0 0 0 0 0 0 0 0 0 0 0 0 0
0 0 -0 -0 0 -0 -0 -0 -0 -0 0 0 0 0 0 0 -0 -0 -0 -0 0 0 0 0 0 0 0 0 0 0 0 0 0 0 0 0 0 0 0 0 0 0 0
0 0 0 -0 -0 -0 -0 -0 -0 -0 -0 0 0 0 0 0 0 0 0 -0 -0 -0 0 0 0 0 0 0 0 0 0 0 0 0 0 0 0 0 0 0 0 0 0
0 0 0 0 -0 -0 -0 -0 -0 -0 -0 -0 0 0 0 0 0 0 0 0 0 -0 0 0 0 0 0 0 0 0 0 0 0 0 0 0 0 0 0 0 0 0 0
-0 0 0 0 0 0 0 0 0 -0 -0 -0 -0 0 0 0 0 0 0 0 0 0 -0 0 0 0 0 0 0 0 0 0 0 0 0 0 0 0 0 0 0 0 0
0 0 0 0 0 0 0 0 0 0 0 0 0 0 0 0 0 -0 0 0 0 0 0 -0 0 0 0 0 0 0 0 0 0 0 0 0 0 0 0 0 0 0 0
0 0 0 0 0 0 0 0 0 0 0 0 0 0 0 0 -0 -0 -0 -0 -0 0 0 0 -0 0 0 0 0 0 0 0 0 0 0 0 0 0 0 0 0 0 0
0 0 0 0 0 0 0 0 0 0 0 0 0 0 0 0 0 -0 -0 -0 -0 -0 -0 -0 -0 -0 -0 0 -0 0 0 0 0 0 0 0 0 0 0 0 0 0 0
0 0 0 0 0 0 0 0 0 0 0 0 0 0 0 0 -0 -0 -0 -0 -0 -0 -0 -0 0 0 0 0 -0 -0 -0 -0 0 0 0 0 0 0 0 0 0 0 0
0 0 0 0 0 0 0 0 0 0 0 0 0 0 0 -0 -0 -0 -0 -0 -0 -0 -0 -0 -0 0 0 0 0 0 0 0 0 0 0 0 0 0 0 0 0 0 0
0 0 0 0 0 0 0 0 0 0 0 0 0 0 0 0 -0 -0 -0 0 0 0 -0 -0 -0 0 0 0 0 0 0 0 0 0 0 0 0 0 0 0 0 0 0
0 0 0 0 0 0 0 0 0 0 0 0 0 0 0 0 0 -0 -0 0 0 0 0 0 0 0 0 0 0 0 0 0 0 0 0 0 0 0 0 0 0 0 0
Wind_Speed_500mb
33 39 35 29 24 21 21 25 32 36 50 65 78 88 95 102 106 109 107 106 104 102 101 99 95 92 90 84 77 73 66 62 53 43 38 36 35 34 33 31 31 30 29
27 34 35 37 33 28 31 34 36 37 42 53 64 78 86 99 106 110 117 116 115 112 110 106 104 100 97 93 88 85 78 72 64 55 40 25 35 41 41 39 38 36 33
37 42 37 38 39 39 36 33 33 32 39 46 55 67 78 91 96 106 118 124 123 120 115 111 109 107 104 102 97 92 87 80 75 71 41 18 20 38 48 47 45 41 39
25 24 25 38 39 42 44 43 38 33 34 39 49 61 71 83 91 95 104 112 122 126 122 118 115 113 110 108 102 96 93 90 85 78 75 45 28 20 20 48 51 50 47
24 20 46 43 41 39 42 42 42 41 41 38 38 47 59 68 74 81 84 94 104 113 126 127 123 122 119 113 109 105 103 98 93 88 85 76 54 41 25 23 49 56 55
39 35 38 45 46 46 46 42 39 40 39 38 35 35 46 55 60 70 79 87 90 98 106 122 125 126 123 119 118 112 106 103 100 93 88 84 78 70 58 38 37 45 54
51 53 61 63 62 62 54 46 45 44 39 36 33 33 36 41 53 61 69 75 84 91 94 98 120 133 130 124 119 119 111 107 105 101 93 85 79 71 63 58 52 46 45
49 52 52 53 55 55 58 59 52 44 48 46 39 34 35 42 48 55 61 69 79 80 81 88 95 127 132 128 125 123 117 111 109 105 99 90 83 75 70 65 63 46 48
42 44 48 55 56 57 57 56 57 55 52 53 55 49 44 42 45 51 60 65 71 71 73 79 85 96 126 132 130 127 124 119 112 109 104 95 89 81 75 69 64 62 52
41 43 40 45 50 53 55 56 57 59 61 58 55 55 54 51 48 51 57 59 66 70 69 70 78 88 102 127 133 131 128 124 116 113 106 104 97 89 82 76 70 67 63
29 31 33 41 46 52 56 58 63 67 67 66 63 63 60 56 53 54 56 60 60 63 68 71 71 79 92 104 128 134 132 127 120 115 113 108 103 96 89 83 77 74 70
24 30 33 36 43 49 55 57 60 61 65 67 68 64 62 62 58 56 54 54 59 61 64 69 72 77 85 91 106 127 135 130 126 122 116 112 107 102 95 88 82 79 74
21 26 31 34 37 42 48 51 52 55 60 65 65 67 68 66 65 65 62 53 57 53 62 67 71 79 82 85 94 102 127 130 128 126 123 115 112 110 103 95 87 83 79
17 29 34 34 34 36 40 45 54 55 59 59 62 63 64 64 68 66 69 66 53 55 59 66 63 76 79 85 89 97 107 123 127 127 120 118 120 117 113 103 94 91 85
28 38 40 40 37 39 42 46 52 57 63 66 65 66 67 67 65 64 67 67 68 59 55 67 62 65 77 85 89 99 103 106 118 128 127 123 121 118 111 103 100 97 93
38 46 45 45 43 45 51 53 49 54 55 61 67 71 72 72 70 67 71 71 67 68 62 60 63 67 74 79 83 93 103 101 107 123 125 122 121 116 111 105 103 99 97
38 49 54 54 52 48 49 50 57 61 59 59 61 63 68 71 71 71 70 71 70 72 69 69 59 66 73 74 76 83 97 102 105 109 116 121 125 119 115 109 103 98 94
48 51 57 64 66 70 69 63 69 69 70 71 70 71 72 73 73 72 73 71 71 70 82 76 70 64 68 72 75 79 85 97 105 108 113 116 120 120 118 113 110 104 99
57 55 69 74 85 86 81 85 88 86 85 81 75 74 78 81 82 80 79 78 78 75 74 83 78 72 71 66 72 73 83 89 98 104 105 108 111 115 119 118 117 107 105
66 75 78 85 97 95 88 93 97 94 94 83 82 82 83 84 89 95 93 88 86 86 82 79 79 76 73 65 68 66 80 89 95 103 108 116 115 115 113 118 117 119 116
67 71 78 89 96 89 76 84 90 95 89 93 96 92 94 97 97 97 102 104 98 93 89 87 79 81 78 68 59 64 74 88 90 100 110 119 116 103 100 106 117 119 110
64 84 86 94 98 80 75 81 88 90 82 83 94 107 109 107 108 110 109 108 110 105 97 90 87 83 80 74 61 58 68 91 104 104 102 104 95 91 92 97 103 106 99
64 69 69 79 92 84 79 81 87 78 82 84 100 109 117 125 126 121 119 119 112 99 92 93 90 86 82 76 65 59 60 73 101 101 88 83 79 81 85 92 93 97 102
66 70 76 84 90 82 80 78 82 75 84 92 102 108 109 112 122 123 119 111 110 93 68 78 89 87 82 79 66 60 60 63 89 94 79 70 63 68 79 84 90 99 104
68 70 78 84 88 85 85 82 85 88 101 105 104 100 96 93 96 98 100 97 102 91 83 70 69 73 80 78 61 54 57 59 83 85 77 59 53 76 82 90 88 92 94
75 76 75 78 85 86 87 86 86 86 88 88 82 77 76 78 79 81 97 88 81 81 79 78 76 81 81 70 61 50 44 50 80 86 81 66 71 88 95 91 90 87 84
Wind_Direction_500mb
335 357 14 13 355 343 321 298 282 273 261 256 250 245 246 246 244 244 245 243 241 237 234 234 231 227 227 227 224 222 220 218 216 214 214 218 220 222 223 226 224 220 217
356 21 29 24 22 6 344 327 308 287 273 263 257 253 253 250 250 247 245 242 240 239 236 234 233 230 227 225 223 222 218 217 216 211 211 215 222 221 221 221 217 213 210
8 19 39 38 30 23 18 10 3 348 313 289 276 264 253 252 252 251 250 245 241 239 238 236 236 233 230 228 226 225 222 222 217 214 203 189 212 209 220 216 212 214 214
357 13 27 19 24 19 17 16 9 354 330 308 287 272 267 264 263 259 257 255 248 242 239 236 235 235 234 231 228 227 227 223 222 216 215 212 200 180 189 216 218 218 218
332 40 21 27 24 19 15 11 8 3 357 341 314 290 278 271 270 268 265 260 256 248 241 237 234 234 233 233 232 227 225 227 225 222 220 218 217 214 195 193 216 219 222
39 25 24 22 19 15 15 10 2 1 360 360 350 325 303 292 274 268 269 266 263 257 250 242 237 237 235 231 232 230 228 228 229 226 226 228 221 219 214 207 207 221 225
23 17 11 10 9 7 5 2 2 358 353 352 351 341 324 304 291 277 274 270 269 264 261 254 241 237 236 234 232 232 229 228 228 230 228 228 231 236 229 222 216 204 216
24 16 12 10 5 2 359 360 359 357 355 351 345 338 329 316 301 290 284 278 273 274 271 264 255 241 237 235 234 234 232 228 228 230 231 230 231 230 232 230 222 211 214
15 11 5 3 359 356 356 353 351 350 349 349 345 340 331 318 308 299 291 283 279 278 272 265 259 253 243 237 235 234 234 230 228 228 231 231 230 231 230 229 230 227 217
5 1 351 346 347 347 346 344 344 343 344 343 345 344 340 325 310 299 292 288 283 279 272 266 262 257 248 239 236 235 235 233 230 229 228 231 230 229 230 229 228 227 229
16 9 0 356 347 344 345 345 340 338 338 341 341 341 343 340 327 309 300 293 287 281 275 269 262 256 252 246 238 236 236 235 232 230 230 230 231 229 229 229 228 227 225
4 354 350 353 353 348 345 341 341 340 338 337 337 338 338 343 340 330 313 299 292 285 279 272 265 258 253 249 246 238 236 235 232 232 230 230 230 230 230 230 230 230 228
356 352 352 351 351 345 342 341 343 342 339 338 334 335 336 337 340 339 333 316 300 292 283 273 266 259 254 250 247 244 239 237 235 234 232 230 231 230 229 227 228 229 229
337 348 349 345 343 340 338 337 338 337 337 338 338 339 341 339 335 332 334 334 318 298 293 281 272 266 261 255 252 247 242 238 237 237 236 233 233 232 230 228 226 229 228
331 339 338 338 334 329 329 331 332 331 332 332 334 331 331 336 338 332 328 326 330 319 293 288 280 272 265 258 254 250 244 241 238 237 236 235 236 235 236 233 230 228 227
323 331 328 326 323 322 322 323 324 324 324 324 323 324 328 330 330 333 333 326 320 326 317 290 284 278 269 265 259 255 251 245 241 239 238 237 236 235 236 236 235 236 232
304 322 325 323 319 312 311 312 316 316 317 316 316 317 318 321 325 330 329 326 323 315 319 310 286 275 275 272 265 259 256 250 245 242 241 238 236 234 234 233 233 233 234
288 306 316 316 316 314 311 309 312 312 311 311 312 313 314 315 317 321 325 328 325 318 310 310 309 285 271 272 268 263 257 253 248 244 242 240 239 236 233 229 229 228 228
280 289 307 311 311 310 308 311 309 310 310 307 307 306 306 309 311 312 317 321 322 319 314 309 308 306 287 272 263 260 255 250 247 244 242 240 239 239 235 232 226 226 227
282 287 300 305 308 308 308 306 305 305 303 303 301 300 300 300 303 306 309 312 315 316 314 309 304 303 295 281 270 251 240 245 245 240 238 237 237 235 238 234 226 226 223
289 294 300 303 303 305 304 300 301 298 300 300 297 295 294 296 297 298 301 305 306 308 309 307 304 297 297 289 274 256 243 246 243 240 237 236 237 236 238 234 229 230 226
297 299 302 302 301 299 297 295 292 295 294 292 289 292 291 290 292 294 294 297 300 301 302 304 302 297 291 293 283 260 241 236 235 241 242 240 236 232 230 230 228 227 228
301 300 298 295 294 296 296 293 292 294 292 284 282 286 289 290 290 290 290 291 293 295 295 296 296 295 292 287 287 270 250 234 235 239 243 245 240 234 229 226 226 223 224
304 303 301 299 296 297 294 291 291 292 283 280 281 284 287 289 289 290 289 288 286 285 278 283 289 291 288 284 284 280 255 232 232 235 238 238 238 231 220 205 216 214 217
306 304 301 298 296 297 294 291 289 287 285 286 288 289 288 288 288 287 285 281 276 274 276 272 274 277 278 281 285 283 271 234 227 223 226 220 206 195 193 196 209 202 209
309 309 308 303 302 301 300 301 302 300 295 293 293 291 289 287 286 285 287 280 274 273 269 268 264 265 269 273 274 276 269 235 226 217 219 215 205 195 192 190 195 206 206
Wind_Speed_850mb
33 39 35 29 24 21 21 25 32 36 50 65 78 88 95 102 106 109 107 106 104 102 101 99 95 92 90 84 77 73 66 62 53 43 38 36 35 34 33 31 31 30 29
27 34 35 37 33 28 31 34 36 37 42 53 64 78 86 99 106 110 117 116 115 112 110 106 104 100 97 93 88 85 78 72 64 55 40 25 35 41 41 39 38 36 33
37 42 37 38 39 39 36 33 33 32 39 46 55 67 78 91 96 106 118 124 123 120 115 111 109 107 104 102 97 92 87 80 75 71 41 18 20 38 48 47 45 41 39
25 24 25 38 39 42 44 43 38 33 34 39 49 61 71 83 91 95 104 112 122 126 122 118 115 113 110 108 102 96 93 90 85 78 75 45 28 20 20 48 51 50 47
24 20 46 43 41 39 42 42 42 41 41 38 38 47 59 68 74 81 84 94 104 113 126 127 123 122 119 113 109 105 103 98 93 88 85 76 54 41 25 23 49 56 55
39 35 38 45 46 46 46 42 39 40 39 38 35 35 46 55 60 70 79 87 90 98 106 122 125 126 123 119 118 112 106 103 100 93 88 84 78 70 58 38 37 45 54
51 53 61 63 62 62 54 46 45 44 39 36 33 33 36 41 53 61 69 75 84 91 94 98 120 133 130 124 119 119 111 107 105 101 93 85 79 71 63 58 52 46 45
49 52 52 53 55 55 58 59 52 44 48 46 39 34 35 42 48 55 61 69 79 80 81 88 95 127 132 128 125 123 117 111 109 105 99 90 83 75 70 65 63 46 48
42 44 48 55 56 57 57 56 57 55 52 53 55 49 44 42 45 51 60 65 71 71 73 79 85 96 126 132 130 127 124 119 112 109 104 95 89 81 75 69 64 62 52
41 43 40 45 50 53 55 56 57 59 61 58 55 55 54 51 48 51 57 59 66 70 69 70 78 88 102 127 133 131 128 124 116 113 106 104 97 89 82 76 70 67 63
29 31 33 41 46 52 56 58 63 67 67 66 63 63 60 56 53 54 56 60 60 63 68 71 71 79 92 104 128 134 132 127 120 115 113 108 103 96 89 83 77 74 70
24 30 33 36 43 49 55 57 60 61 65 67 68 64 62 62 58 56 54 54 59 61 64 69 72 77 85 91 106 127 135 130 126 122 116 112 107 102 95 88 82 79 74
21 26 31 34 37 42 48 51 52 55 60 65 65 67 68 66 65 65 62 53 57 53 62 67 71 79 82 85 94 102 127 130 128 126 123 115 112 110 103 95 87 83 79
17 29 34 34 34 36 40 45 54 55 59 59 62 63 64 64 68 66 69 66 53 55 59 66 63 76 79 85 89 97 107 123 127 127 120 118 120 117 113 103 94 91 85
28 38 40 40 37 39 42 46 52 57 63 66 65 66 67 67 65 64 67 67 68 59 55 67 62 65 77 85 89 99 103 106 118 128 127 123 121 118 111 103 100 97 93
38 46 45 45 43 45 51 53 49 54 55 61 67 71 72 72 70 67 71 71 67 68 62 60 63 67 74 79 83 93 103 101 107 123 125 122 121 116 111 105 103 99 97
38 49 54 54 52 48 49 50 57 61 59 59 61 63 68 71 71 71 70 71 70 72 69 69 59 66 73 74 76 83 97 102 105 109 116 121 125 119 115 109 103 98 94
48 51 57 64 66 70 69 63 69 69 70 71 70 71 72 73 73 72 73 71 71 70 82 76 70 64 68 72 75 79 85 97 105 108 113 116 120 120 118 113 110 104 99
57 55 69 74 85 86 81 85 88 86 85 81 75 74 78 81 82 80 79 78 78 75 74 83 78 72 71 66 72 73 83 89 98 104 105 108 111 115 119 118 117 107 105
66 75 78 85 97 95 88 93 97 94 94 83 82 82 83 84 89 95 93 88 86 86 82 79 79 76 73 65 68 66 80 89 95 103 108 116 115 115 113 118 117 119 116
67 71 78 89 96 89 76 84 90 95 89 93 96 92 94 97 97 97 102 104 98 93 89 87 79 81 78 68 59 64 74 88 90 100 110 119 116 103 100 106 117 119 110
64 84 86 94 98 80 75 81 88 90 82 83 94 107 109 107 108 110 109 108 110 105 97 90 87 83 80 74 61 58 68 91 104 104 102 104 95 91 92 97 103 106 99
64 69 69 79 92 84 79 81 87 78 82 84 100 109 117 125 126 121 119 119 112 99 92 93 90 86 82 76 65 59 60 73 101 101 88 83 79 81 85 92 93 97 102
66 70 76 84 90 82 80 78 82 75 84 92 102 108 109 112 122 123 119 111 110 93 68 78 89 87 82 79 66 60 60 63 89 94 79 70 63 68 79 84 90 99 104
68 70 78 84 88 85 85 82 85 88 101 105 104 100 96 93 96 98 100 97 102 91 83 70 69 73 80 78 61 54 57 59 83 85 77 59 53 76 82 90 88 92 94
75 76 75 78 85 86 87 86 86 86 88 88 82 77 76 78 79 81 97 88 81 81 79 78 76 81 81 70 61 50 44 50 80 86 81 66 71 88 95 91 90 87 84
Wind_Direction_850mb
335 357 14 13 355 343 321 298 282 273 261 256 250 245 246 246 244 244 245 243 241 237 234 234 231 227 227 227 224 222 220 218 216 214 214 218 220 222 223 226 224 220 217
356 21 29 24 22 6 344 327 308 287 273 263 257 253 253 250 250 247 245 242 240 239 236 234 233 230 227 225 223 222 218 217 216 211 211 215 222 221 221 221 217 213 210
8 19 39 38 30 23 18 10 3 348 313 289 276 264 253 252 252 251 250 245 241 239 238 236 236 233 230 228 226 225 222 222 217 214 203 189 212 209 220 216 212 214 214
357 13 27 19 24 19 17 16 9 354 330 308 287 272 267 264 263 259 257 255 248 242 239 236 235 235 234 231 228 227 227 223 222 216 215 212 200 180 189 216 218 218 218
332 40 21 27 24 19 15 11 8 3 357 341 314 290 278 271 270 268 265 260 256 248 241 237 234 234 233 233 232 227 225 227 225 222 220 218 217 214 195 193 216 219 222
39 25 24 22 19 15 15 10 2 1 360 360 350 325 303 292 274 268 269 266 263 257 250 242 237 237 235 231 232 230 228 228 229 226 226 228 221 219 214 207 207 221 225
23 17 11 10 9 7 5 2 2 358 353 352 351 341 324 304 291 277 274 270 269 264 261 254 241 237 236 234 232 232 229 228 228 230 228 228 231 236 229 222 216 204 216
24 16 12 10 5 2 359 360 359 357 355 351 345 338 329 316 301 290 284 278 273 274 271 264 255 241 237 235 234 234 232 228 228 230 231 230 231 230 232 230 222 211 214
15 11 5 3 359 356 356 353 351 350 349 349 345 340 331 318 308 299 291 283 279 278 272 265 259 253 243 237 235 234 234 230 228 228 231 231 230 231 230 229 230 227 217
5 1 351 346 347 347 346 344 344 343 344 343 345 344 340 325 310 299 292 288 283 279 272 266 262 257 248 239 236 235 235 233 230 229 228 231 230 229 230 229 228 227 229
16 9 0 356 347 344 345 345 340 338 338 341 341 341 343 340 327 309 300 293 287 281 275 269 262 256 252 246 238 236 236 235 232 230 230 230 231 229 229 229 228 227 225
4 354 350 353 353 348 345 341 341 340 338 337 337 338 338 343 340 330 313 299 292 285 279 272 265 258 253 249 246 238 236 235 232 232 230 230 230 230 230 230 230 230 228
356 352 352 351 351 345 342 341 343 342 339 338 334 335 336 337 340 339 333 316 300 292 283 273 266 259 254 250 247 244 239 237 235 234 232 230 231 230 229 227 228 229 229
337 348 349 345 343 340 338 337 338 337 337 338 338 339 341 339 335 332 334 334 318 298 293 281 272 266 261 255 252 247 242 238 237 237 236 233 233 232 230 228 226 229 228
331 339 338 338 334 329 329 331 332 331 332 332 334 331 331 336 338 332 328 326 330 319 293 288 280 272 265 258 254 250 244 241 238 237 236 235 236 235 236 233 230 228 227
323 331 328 326 323 322 322 323 324 324 324 324 323 324 328 330 330 333 333 326 320 326 317 290 284 278 269 265 259 255 251 245 241 239 238 237 236 235 236 236 235 236 232
304 322 325 323 319 312 311 312 316 316 317 316 316 317 318 321 325 330 329 326 323 315 319 310 286 275 275 272 265 259 256 250 245 242 241 238 236 234 234 233 233 233 234
288 306 316 316 316 314 311 309 312 312 311 311 312 313 314 315 317 321 325 328 325 318 310 310 309 285 271 272 268 263 257 253 248 244 242 240 239 236 233 229 229 228 228
280 289 307 311 311 310 308 311 309 310 310 307 307 306 306 309 311 312 317 321 322 319 314 309 308 306 287 272 263 260 255 250 247 244 242 240 239 239 235 232 226 226 227
282 287 300 305 308 308 308 306 305 305 303 303 301 300 300 300 303 306 309 312 315 316 314 309 304 303 295 281 270 251 240 245 245 240 238 237 237 235 238 234 226 226 223
289 294 300 303 303 305 304 300 301 298 300 300 297 295 294 296 297 298 301 305 306 308 309 307 304 297 297 289 274 256 243 246 243 240 237 236 237 236 238 234 229 230 226
297 299 302 302 301 299 297 295 292 295 294 292 289 292 291 290 292 294 294 297 300 301 302 304 302 297 291 293 283 260 241 236 235 241 242 240 236 232 230 230 228 227 228
301 300 298 295 294 296 296 293 292 294 292 284 282 286 289 290 290 290 290 291 293 295 295 296 296 295 292 287 287 270 250 234 235 239 243 245 240 234 229 226 226 223 224
304 303 301 299 296 297 294 291 291 292 283 280 281 284 287 289 289 290 289 288 286 285 278 283 289 291 288 284 284 280 255 232 232 235 238 238 238 231 220 205 216 214 217
306 304 301 298 296 297 294 291 289 287 285 286 288 289 288 288 288 287 285 281 276 274 276 272 274 277 278 281 285 283 271 234 227 223 226 220 206 195 193 196 209 202 209
309 309 308 303 302 301 300 301 302 300 295 293 293 291 289 287 286 285 287 280 274 273 269 268 264 265 269 273 274 276 269 235 226 217 219 215 205 195 192 190 195 206 206